owner,sensor,date,latitude,longitude,vertical_datum,sea_water_temperature,qcFlag 
TABS,ioos:station:TABS:X:1,2016-08-03T01:30:00Z,27.0660,-96.3383,-2.0,31.84,11111222 
TABS,ioos:station:TABS:X:1,2016-08-03T02:00:00Z,27.0660,-96.3383,-2.0,31.08,11111222 
TABS,ioos:station:TABS:X:1,2016-08-03T02:30:00Z,27.0660,-96.3383,-2.0,30.68,11111222 
TABS,ioos:station:TABS:X:1,2016-08-03T03:00:00Z,27.0660,-96.3383,-2.0,30.5,11111222 
TABS,ioos:station:TABS:X:1,2016-08-03T03:30:00Z,27.0660,-96.3383,-2.0,30.37,11111222 
TABS,ioos:station:TABS:X:1,2016-08-03T04:00:00Z,27.0660,-96.3383,-2.0,30.31,11111222 
TABS,ioos:station:TABS:X:1,2016-08-03T04:30:00Z,27.0660,-96.3383,-2.0,30.31,11111222 
TABS,ioos:station:TABS:X:1,2016-08-03T05:00:00Z,27.0660,-96.3383,-2.0,30.26,11111222 
TABS,ioos:station:TABS:X:1,2016-08-03T05:30:00Z,27.0660,-96.3383,-2.0,30.84,11111222 
TABS,ioos:station:TABS:X:1,2016-08-03T06:00:00Z,27.0660,-96.3383,-2.0,30.52,11111222 
TABS,ioos:station:TABS:X:1,2016-08-03T06:30:00Z,27.0660,-96.3383,-2.0,30.32,11111222 
TABS,ioos:station:TABS:X:1,2016-08-03T07:00:00Z,27.0660,-96.3383,-2.0,30.34,11111222 
TABS,ioos:station:TABS:X:1,2016-08-03T07:30:00Z,27.0660,-96.3383,-2.0,30.27,11111222 
TABS,ioos:station:TABS:X:1,2016-08-03T08:00:00Z,27.0660,-96.3383,-2.0,30.16,11111222 
TABS,ioos:station:TABS:X:1,2016-08-03T08:30:00Z,27.0660,-96.3383,-2.0,30.16,11111222 
TABS,ioos:station:TABS:X:1,2016-08-03T09:00:00Z,27.0660,-96.3383,-2.0,30.04,11111222 
TABS,ioos:station:TABS:X:1,2016-08-03T09:30:00Z,27.0660,-96.3383,-2.0,29.99,11111222 
TABS,ioos:station:TABS:X:1,2016-08-03T10:00:00Z,27.0660,-96.3383,-2.0,29.96,11111222 
TABS,ioos:station:TABS:X:1,2016-08-03T10:30:00Z,27.0660,-96.3383,-2.0,29.97,11111222 
TABS,ioos:station:TABS:X:1,2016-08-03T11:00:00Z,27.0660,-96.3383,-2.0,29.94,11111222 
TABS,ioos:station:TABS:X:1,2016-08-03T11:30:00Z,27.0660,-96.3383,-2.0,29.9,11111222 
TABS,ioos:station:TABS:X:1,2016-08-03T12:00:00Z,27.0660,-96.3383,-2.0,29.95,11111222 
TABS,ioos:station:TABS:X:1,2016-08-03T12:30:00Z,27.0660,-96.3383,-2.0,30.11,11111222 
TABS,ioos:station:TABS:X:1,2016-08-03T13:00:00Z,27.0660,-96.3383,-2.0,30.4,11111222 
TABS,ioos:station:TABS:X:1,2016-08-03T13:30:00Z,27.0660,-96.3383,-2.0,30.72,11111222 
TABS,ioos:station:TABS:X:1,2016-08-03T14:00:00Z,27.0660,-96.3383,-2.0,31.08,11111222 
TABS,ioos:station:TABS:X:1,2016-08-03T14:30:00Z,27.0660,-96.3383,-2.0,31.9,11111222 
TABS,ioos:station:TABS:X:1,2016-08-03T15:00:00Z,27.0660,-96.3383,-2.0,32.35,11111222 
TABS,ioos:station:TABS:X:1,2016-08-03T15:30:00Z,27.0660,-96.3383,-2.0,32.32,11111222 
TABS,ioos:station:TABS:X:1,2016-08-03T16:00:00Z,27.0660,-96.3383,-2.0,33.04,11111222 
TABS,ioos:station:TABS:X:1,2016-08-03T16:30:00Z,27.0660,-96.3383,-2.0,34.37,11111222 
TABS,ioos:station:TABS:X:1,2016-08-03T17:00:00Z,27.0660,-96.3383,-2.0,35.25,11133222 
TABS,ioos:station:TABS:X:1,2016-08-03T17:30:00Z,27.0660,-96.3383,-2.0,35.24,11133222 
TABS,ioos:station:TABS:X:1,2016-08-03T18:00:00Z,27.0660,-96.3383,-2.0,35.38,11133222 
TABS,ioos:station:TABS:X:1,2016-08-03T18:30:00Z,27.0660,-96.3383,-2.0,35.84,11133222 
TABS,ioos:station:TABS:X:1,2016-08-03T19:00:00Z,27.0660,-96.3383,-2.0,36.33,11133222 
TABS,ioos:station:TABS:X:1,2016-08-03T19:30:00Z,27.0660,-96.3383,-2.0,36.82,11133222 
TABS,ioos:station:TABS:X:1,2016-08-03T20:00:00Z,27.0660,-96.3383,-2.0,37.11,11133222 
TABS,ioos:station:TABS:X:1,2016-08-03T20:30:00Z,27.0660,-96.3383,-2.0,36.13,11133222 
TABS,ioos:station:TABS:X:1,2016-08-03T21:00:00Z,27.0660,-96.3383,-2.0,35.68,11133222 
TABS,ioos:station:TABS:X:1,2016-08-03T21:30:00Z,27.0660,-96.3383,-2.0,34.97,11111222 
TABS,ioos:station:TABS:X:1,2016-08-03T23:00:00Z,27.0660,-96.3383,-2.0,30.91,11111222 
TABS,ioos:station:TABS:X:1,2016-08-04T00:00:00Z,27.0660,-96.3383,-2.0,31.01,11111222 
TABS,ioos:station:TABS:X:1,2016-08-04T00:30:00Z,27.0660,-96.3383,-2.0,30.67,11111222 
TABS,ioos:station:TABS:X:1,2016-08-04T01:00:00Z,27.0660,-96.3383,-2.0,30.91,11111222 
TABS,ioos:station:TABS:X:1,2016-08-04T01:30:00Z,27.0660,-96.3383,-2.0,30.32,11111222 
TABS,ioos:station:TABS:X:1,2016-08-04T02:00:00Z,27.0660,-96.3383,-2.0,30.37,11111222 
TABS,ioos:station:TABS:X:1,2016-08-04T02:30:00Z,27.0660,-96.3383,-2.0,30.47,11111222 
TABS,ioos:station:TABS:X:1,2016-08-04T03:00:00Z,27.0660,-96.3383,-2.0,30.36,11111222 
TABS,ioos:station:TABS:X:1,2016-08-04T03:30:00Z,27.0660,-96.3383,-2.0,30.21,11111222 
TABS,ioos:station:TABS:X:1,2016-08-04T04:00:00Z,27.0660,-96.3383,-2.0,30.16,11111222 
TABS,ioos:station:TABS:X:1,2016-08-04T04:30:00Z,27.0660,-96.3383,-2.0,30.18,11111222 
TABS,ioos:station:TABS:X:1,2016-08-04T05:00:00Z,27.0660,-96.3383,-2.0,30.27,11111222 
TABS,ioos:station:TABS:X:1,2016-08-04T05:30:00Z,27.0660,-96.3383,-2.0,30.2,11111222 
TABS,ioos:station:TABS:X:1,2016-08-04T06:00:00Z,27.0660,-96.3383,-2.0,30.15,11111222 
TABS,ioos:station:TABS:X:1,2016-08-04T06:30:00Z,27.0660,-96.3383,-2.0,30.08,11111222 
TABS,ioos:station:TABS:X:1,2016-08-04T07:00:00Z,27.0660,-96.3383,-2.0,30.04,11111222 
TABS,ioos:station:TABS:X:1,2016-08-04T07:30:00Z,27.0660,-96.3383,-2.0,30.06,11111222 
TABS,ioos:station:TABS:X:1,2016-08-04T08:00:00Z,27.0660,-96.3383,-2.0,30.06,11111222 
TABS,ioos:station:TABS:X:1,2016-08-04T08:30:00Z,27.0660,-96.3383,-2.0,30.08,11111222 
TABS,ioos:station:TABS:X:1,2016-08-04T09:00:00Z,27.0660,-96.3383,-2.0,30.12,11111222 
TABS,ioos:station:TABS:X:1,2016-08-04T09:30:00Z,27.0660,-96.3383,-2.0,30.11,11111222 
TABS,ioos:station:TABS:X:1,2016-08-04T10:00:00Z,27.0660,-96.3383,-2.0,30.12,11111222 
TABS,ioos:station:TABS:X:1,2016-08-04T10:30:00Z,27.0660,-96.3383,-2.0,30.1,11111222 
TABS,ioos:station:TABS:X:1,2016-08-04T11:00:00Z,27.0660,-96.3383,-2.0,30.09,11111222 
TABS,ioos:station:TABS:X:1,2016-08-04T11:30:00Z,27.0660,-96.3383,-2.0,30.08,11111222 
TABS,ioos:station:TABS:X:1,2016-08-04T12:00:00Z,27.0660,-96.3383,-2.0,30.1,11111222 
TABS,ioos:station:TABS:X:1,2016-08-04T12:30:00Z,27.0660,-96.3383,-2.0,30.09,11111222 
TABS,ioos:station:TABS:X:1,2016-08-04T13:00:00Z,27.0660,-96.3383,-2.0,30.11,11111222 
TABS,ioos:station:TABS:X:1,2016-08-04T13:30:00Z,27.0660,-96.3383,-2.0,30.15,11111222 
TABS,ioos:station:TABS:X:1,2016-08-04T14:00:00Z,27.0660,-96.3383,-2.0,30.15,11111222 
TABS,ioos:station:TABS:X:1,2016-08-04T14:30:00Z,27.0660,-96.3383,-2.0,30.17,11111222 
TABS,ioos:station:TABS:X:1,2016-08-04T15:00:00Z,27.0660,-96.3383,-2.0,30.23,11111222 
TABS,ioos:station:TABS:X:1,2016-08-04T15:30:00Z,27.0660,-96.3383,-2.0,30.27,11111222 
TABS,ioos:station:TABS:X:1,2016-08-04T16:00:00Z,27.0660,-96.3383,-2.0,30.29,11111222 
TABS,ioos:station:TABS:X:1,2016-08-04T16:30:00Z,27.0660,-96.3383,-2.0,30.35,11111222 
TABS,ioos:station:TABS:X:1,2016-08-04T17:00:00Z,27.0660,-96.3383,-2.0,30.47,11111222 
TABS,ioos:station:TABS:X:1,2016-08-04T17:30:00Z,27.0660,-96.3383,-2.0,30.54,11111222 
TABS,ioos:station:TABS:X:1,2016-08-04T18:00:00Z,27.0660,-96.3383,-2.0,30.63,11111222 
TABS,ioos:station:TABS:X:1,2016-08-04T18:30:00Z,27.0660,-96.3383,-2.0,30.67,11111222 
TABS,ioos:station:TABS:X:1,2016-08-04T19:00:00Z,27.0660,-96.3383,-2.0,30.72,11111222 
TABS,ioos:station:TABS:X:1,2016-08-04T19:30:00Z,27.0660,-96.3383,-2.0,30.77,11111222 
TABS,ioos:station:TABS:X:1,2016-08-04T20:00:00Z,27.0660,-96.3383,-2.0,30.77,11111222 
TABS,ioos:station:TABS:X:1,2016-08-04T20:30:00Z,27.0660,-96.3383,-2.0,30.86,11111222 
TABS,ioos:station:TABS:X:1,2016-08-04T21:00:00Z,27.0660,-96.3383,-2.0,30.88,11111222 
TABS,ioos:station:TABS:X:1,2016-08-04T21:30:00Z,27.0660,-96.3383,-2.0,30.78,11111222 
TABS,ioos:station:TABS:X:1,2016-08-04T22:00:00Z,27.0660,-96.3383,-2.0,30.78,11111222 
TABS,ioos:station:TABS:X:1,2016-08-04T22:30:00Z,27.0660,-96.3383,-2.0,30.79,11111222 
TABS,ioos:station:TABS:X:1,2016-08-04T23:00:00Z,27.0660,-96.3383,-2.0,30.78,11111222 
TABS,ioos:station:TABS:X:1,2016-08-04T23:30:00Z,27.0660,-96.3383,-2.0,30.74,11111222 
TABS,ioos:station:TABS:X:1,2016-08-05T00:00:00Z,27.0660,-96.3383,-2.0,30.73,11111222 
TABS,ioos:station:TABS:X:1,2016-08-05T00:30:00Z,27.0660,-96.3383,-2.0,30.66,11111222 
TABS,ioos:station:TABS:X:1,2016-08-05T01:00:00Z,27.0660,-96.3383,-2.0,30.66,11111222 
TABS,ioos:station:TABS:X:1,2016-08-05T01:30:00Z,27.0660,-96.3383,-2.0,30.67,11111222 
TABS,ioos:station:TABS:X:1,2016-08-05T02:00:00Z,27.0660,-96.3383,-2.0,30.7,11111222 
TABS,ioos:station:TABS:X:1,2016-08-05T02:30:00Z,27.0660,-96.3383,-2.0,30.65,11111222 
TABS,ioos:station:TABS:X:1,2016-08-05T03:00:00Z,27.0660,-96.3383,-2.0,30.74,11111222 
TABS,ioos:station:TABS:X:1,2016-08-05T03:30:00Z,27.0660,-96.3383,-2.0,30.79,11111222 
TABS,ioos:station:TABS:X:1,2016-08-05T04:00:00Z,27.0660,-96.3383,-2.0,30.74,11111222 
TABS,ioos:station:TABS:X:1,2016-08-05T04:30:00Z,27.0660,-96.3383,-2.0,30.54,11111222 
TABS,ioos:station:TABS:X:1,2016-08-05T05:00:00Z,27.0660,-96.3383,-2.0,30.49,11111222 
TABS,ioos:station:TABS:X:1,2016-08-05T05:30:00Z,27.0660,-96.3383,-2.0,30.45,11111222 
TABS,ioos:station:TABS:X:1,2016-08-05T06:00:00Z,27.0660,-96.3383,-2.0,30.44,11111222 
TABS,ioos:station:TABS:X:1,2016-08-05T06:30:00Z,27.0660,-96.3383,-2.0,30.41,11111222 
TABS,ioos:station:TABS:X:1,2016-08-05T07:00:00Z,27.0660,-96.3383,-2.0,30.38,11111222 
TABS,ioos:station:TABS:X:1,2016-08-05T07:30:00Z,27.0660,-96.3383,-2.0,30.34,11111222 
TABS,ioos:station:TABS:X:1,2016-08-05T08:00:00Z,27.0660,-96.3383,-2.0,30.3,11111222 
TABS,ioos:station:TABS:X:1,2016-08-05T08:30:00Z,27.0660,-96.3383,-2.0,30.26,11111222 
TABS,ioos:station:TABS:X:1,2016-08-05T09:00:00Z,27.0660,-96.3383,-2.0,30.26,11111222 
TABS,ioos:station:TABS:X:1,2016-08-05T09:30:00Z,27.0660,-96.3383,-2.0,30.26,11111222 
TABS,ioos:station:TABS:X:1,2016-08-05T10:00:00Z,27.0660,-96.3383,-2.0,30.23,11111222 
TABS,ioos:station:TABS:X:1,2016-08-05T10:30:00Z,27.0660,-96.3383,-2.0,30.21,11111222 
TABS,ioos:station:TABS:X:1,2016-08-05T11:00:00Z,27.0660,-96.3383,-2.0,30.21,11111222 
TABS,ioos:station:TABS:X:1,2016-08-05T11:30:00Z,27.0660,-96.3383,-2.0,30.21,11111222 
TABS,ioos:station:TABS:X:1,2016-08-05T12:00:00Z,27.0660,-96.3383,-2.0,30.21,11111222 
TABS,ioos:station:TABS:X:1,2016-08-05T12:30:00Z,27.0660,-96.3383,-2.0,30.2,11111222 
TABS,ioos:station:TABS:X:1,2016-08-05T13:00:00Z,27.0660,-96.3383,-2.0,30.2,11111222 
TABS,ioos:station:TABS:X:1,2016-08-05T13:30:00Z,27.0660,-96.3383,-2.0,30.21,11111222 
TABS,ioos:station:TABS:X:1,2016-08-05T14:00:00Z,27.0660,-96.3383,-2.0,30.2,11111222 
TABS,ioos:station:TABS:X:1,2016-08-05T14:30:00Z,27.0660,-96.3383,-2.0,30.2,11111222 
TABS,ioos:station:TABS:X:1,2016-08-05T15:00:00Z,27.0660,-96.3383,-2.0,30.21,11111222 
TABS,ioos:station:TABS:X:1,2016-08-05T15:30:00Z,27.0660,-96.3383,-2.0,30.23,11111222 
TABS,ioos:station:TABS:X:1,2016-08-05T16:00:00Z,27.0660,-96.3383,-2.0,30.24,11111222 
TABS,ioos:station:TABS:X:1,2016-08-05T16:30:00Z,27.0660,-96.3383,-2.0,30.26,11111222 
TABS,ioos:station:TABS:X:1,2016-08-05T17:00:00Z,27.0660,-96.3383,-2.0,30.31,11111222 
TABS,ioos:station:TABS:X:1,2016-08-05T17:30:00Z,27.0660,-96.3383,-2.0,30.38,11111222 
TABS,ioos:station:TABS:X:1,2016-08-05T18:00:00Z,27.0660,-96.3383,-2.0,30.47,11111222 
TABS,ioos:station:TABS:X:1,2016-08-05T18:30:00Z,27.0660,-96.3383,-2.0,30.53,11111222 
TABS,ioos:station:TABS:X:1,2016-08-05T19:00:00Z,27.0660,-96.3383,-2.0,30.58,11111222 
TABS,ioos:station:TABS:X:1,2016-08-05T19:30:00Z,27.0660,-96.3383,-2.0,30.62,11111222 
TABS,ioos:station:TABS:X:1,2016-08-05T20:00:00Z,27.0660,-96.3383,-2.0,30.66,11111222 
TABS,ioos:station:TABS:X:1,2016-08-05T20:30:00Z,27.0660,-96.3383,-2.0,30.71,11111222 
TABS,ioos:station:TABS:X:1,2016-08-05T21:00:00Z,27.0660,-96.3383,-2.0,30.73,11111222 
TABS,ioos:station:TABS:X:1,2016-08-05T21:30:00Z,27.0660,-96.3383,-2.0,30.75,11111222 
TABS,ioos:station:TABS:X:1,2016-08-05T22:00:00Z,27.0660,-96.3383,-2.0,30.78,11111222 
TABS,ioos:station:TABS:X:1,2016-08-05T22:30:00Z,27.0660,-96.3383,-2.0,30.75,11111222 
TABS,ioos:station:TABS:X:1,2016-08-05T23:00:00Z,27.0660,-96.3383,-2.0,30.76,11111222 
TABS,ioos:station:TABS:X:1,2016-08-05T23:30:00Z,27.0660,-96.3383,-2.0,30.77,11111222 
TABS,ioos:station:TABS:X:1,2016-08-06T00:00:00Z,27.0660,-96.3383,-2.0,30.77,11111222 
TABS,ioos:station:TABS:X:1,2016-08-06T00:30:00Z,27.0660,-96.3383,-2.0,30.72,11111222 
TABS,ioos:station:TABS:X:1,2016-08-06T01:00:00Z,27.0660,-96.3383,-2.0,30.67,11111222 
TABS,ioos:station:TABS:X:1,2016-08-06T01:30:00Z,27.0660,-96.3383,-2.0,30.55,11111222 
TABS,ioos:station:TABS:X:1,2016-08-06T02:00:00Z,27.0660,-96.3383,-2.0,30.5,11111222 
TABS,ioos:station:TABS:X:1,2016-08-06T02:30:00Z,27.0660,-96.3383,-2.0,30.46,11111222 
TABS,ioos:station:TABS:X:1,2016-08-06T03:00:00Z,27.0660,-96.3383,-2.0,30.5,11111222 
TABS,ioos:station:TABS:X:1,2016-08-06T03:30:00Z,27.0660,-96.3383,-2.0,30.46,11111222 
TABS,ioos:station:TABS:X:1,2016-08-06T04:00:00Z,27.0660,-96.3383,-2.0,30.45,11111222 
TABS,ioos:station:TABS:X:1,2016-08-06T04:30:00Z,27.0660,-96.3383,-2.0,30.47,11111222 
TABS,ioos:station:TABS:X:1,2016-08-06T05:00:00Z,27.0660,-96.3383,-2.0,30.48,11111222 
TABS,ioos:station:TABS:X:1,2016-08-06T05:30:00Z,27.0660,-96.3383,-2.0,30.5,11111222 
TABS,ioos:station:TABS:X:1,2016-08-06T06:00:00Z,27.0660,-96.3383,-2.0,30.53,11111222 
TABS,ioos:station:TABS:X:1,2016-08-06T06:30:00Z,27.0660,-96.3383,-2.0,30.55,11111222 
TABS,ioos:station:TABS:X:1,2016-08-06T07:00:00Z,27.0660,-96.3383,-2.0,30.57,11111222 
TABS,ioos:station:TABS:X:1,2016-08-06T07:30:00Z,27.0660,-96.3383,-2.0,30.57,11111222 
TABS,ioos:station:TABS:X:1,2016-08-06T08:00:00Z,27.0660,-96.3383,-2.0,30.57,11111222 
TABS,ioos:station:TABS:X:1,2016-08-06T08:30:00Z,27.0660,-96.3383,-2.0,30.53,11111222 
TABS,ioos:station:TABS:X:1,2016-08-06T09:00:00Z,27.0660,-96.3383,-2.0,30.5,11111222 
TABS,ioos:station:TABS:X:1,2016-08-06T09:30:00Z,27.0660,-96.3383,-2.0,30.43,11111222 
TABS,ioos:station:TABS:X:1,2016-08-06T10:00:00Z,27.0660,-96.3383,-2.0,30.38,11111222 
TABS,ioos:station:TABS:X:1,2016-08-06T10:30:00Z,27.0660,-96.3383,-2.0,30.36,11111222 
TABS,ioos:station:TABS:X:1,2016-08-06T11:00:00Z,27.0660,-96.3383,-2.0,30.36,11111222 
TABS,ioos:station:TABS:X:1,2016-08-06T11:30:00Z,27.0660,-96.3383,-2.0,30.34,11111222 
TABS,ioos:station:TABS:X:1,2016-08-06T12:00:00Z,27.0660,-96.3383,-2.0,30.3,11111222 
TABS,ioos:station:TABS:X:1,2016-08-06T12:30:00Z,27.0660,-96.3383,-2.0,30.26,11111222 
TABS,ioos:station:TABS:X:1,2016-08-06T13:00:00Z,27.0660,-96.3383,-2.0,30.24,11111222 
TABS,ioos:station:TABS:X:1,2016-08-06T13:30:00Z,27.0660,-96.3383,-2.0,30.24,11111222 
TABS,ioos:station:TABS:X:1,2016-08-06T14:00:00Z,27.0660,-96.3383,-2.0,30.25,11111222 
TABS,ioos:station:TABS:X:1,2016-08-06T14:30:00Z,27.0660,-96.3383,-2.0,30.28,11111222 
TABS,ioos:station:TABS:X:1,2016-08-06T15:00:00Z,27.0660,-96.3383,-2.0,30.26,11111222 
TABS,ioos:station:TABS:X:1,2016-08-06T15:30:00Z,27.0660,-96.3383,-2.0,30.24,11111222 
TABS,ioos:station:TABS:X:1,2016-08-06T16:00:00Z,27.0660,-96.3383,-2.0,30.28,11111222 
TABS,ioos:station:TABS:X:1,2016-08-06T16:30:00Z,27.0660,-96.3383,-2.0,30.32,11111222 
TABS,ioos:station:TABS:X:1,2016-08-06T17:00:00Z,27.0660,-96.3383,-2.0,30.34,11111222 
TABS,ioos:station:TABS:X:1,2016-08-06T17:30:00Z,27.0660,-96.3383,-2.0,30.36,11111222 
TABS,ioos:station:TABS:X:1,2016-08-06T18:00:00Z,27.0660,-96.3383,-2.0,30.39,11111222 
TABS,ioos:station:TABS:X:1,2016-08-06T18:30:00Z,27.0660,-96.3383,-2.0,30.46,11111222 
TABS,ioos:station:TABS:X:1,2016-08-06T19:00:00Z,27.0660,-96.3383,-2.0,30.51,11111222 
TABS,ioos:station:TABS:X:1,2016-08-06T19:30:00Z,27.0660,-96.3383,-2.0,30.59,11111222 
TABS,ioos:station:TABS:X:1,2016-08-06T20:00:00Z,27.0660,-96.3383,-2.0,30.68,11111222 
TABS,ioos:station:TABS:X:1,2016-08-06T20:30:00Z,27.0660,-96.3383,-2.0,30.75,11111222 
TABS,ioos:station:TABS:X:1,2016-08-06T21:00:00Z,27.0660,-96.3383,-2.0,30.79,11111222 
TABS,ioos:station:TABS:X:1,2016-08-06T21:30:00Z,27.0660,-96.3383,-2.0,30.82,11111222 
TABS,ioos:station:TABS:X:1,2016-08-06T22:00:00Z,27.0660,-96.3383,-2.0,30.83,11111222 
TABS,ioos:station:TABS:X:1,2016-08-06T22:30:00Z,27.0660,-96.3383,-2.0,30.83,11111222 
TABS,ioos:station:TABS:X:1,2016-08-06T23:00:00Z,27.0660,-96.3383,-2.0,30.79,11111222 
TABS,ioos:station:TABS:X:1,2016-08-06T23:30:00Z,27.0660,-96.3383,-2.0,30.78,11111222 
TABS,ioos:station:TABS:X:1,2016-08-07T00:00:00Z,27.0660,-96.3383,-2.0,30.75,11111222 
TABS,ioos:station:TABS:X:1,2016-08-07T00:30:00Z,27.0660,-96.3383,-2.0,30.74,11111222 
TABS,ioos:station:TABS:X:1,2016-08-07T01:00:00Z,27.0660,-96.3383,-2.0,30.69,11111222 
TABS,ioos:station:TABS:X:1,2016-08-07T01:30:00Z,27.0660,-96.3383,-2.0,30.68,11111222 
TABS,ioos:station:TABS:X:1,2016-08-07T02:00:00Z,27.0660,-96.3383,-2.0,30.64,11111222 
TABS,ioos:station:TABS:X:1,2016-08-07T02:30:00Z,27.0660,-96.3383,-2.0,30.62,11111222 
TABS,ioos:station:TABS:X:1,2016-08-07T03:00:00Z,27.0660,-96.3383,-2.0,30.61,11111222 
TABS,ioos:station:TABS:X:1,2016-08-07T03:30:00Z,27.0660,-96.3383,-2.0,30.62,11111222 
TABS,ioos:station:TABS:X:1,2016-08-07T04:00:00Z,27.0660,-96.3383,-2.0,30.59,11111222 
TABS,ioos:station:TABS:X:1,2016-08-07T04:30:00Z,27.0660,-96.3383,-2.0,30.59,11111222 
TABS,ioos:station:TABS:X:1,2016-08-07T05:00:00Z,27.0660,-96.3383,-2.0,30.57,11111222 
TABS,ioos:station:TABS:X:1,2016-08-07T05:30:00Z,27.0660,-96.3383,-2.0,30.54,11111222 
TABS,ioos:station:TABS:X:1,2016-08-07T06:00:00Z,27.0660,-96.3383,-2.0,30.53,11111222 
TABS,ioos:station:TABS:X:1,2016-08-07T06:30:00Z,27.0660,-96.3383,-2.0,30.53,11111222 
TABS,ioos:station:TABS:X:1,2016-08-07T07:00:00Z,27.0660,-96.3383,-2.0,30.54,11111222 
TABS,ioos:station:TABS:X:1,2016-08-07T07:30:00Z,27.0660,-96.3383,-2.0,30.54,11111222 
TABS,ioos:station:TABS:X:1,2016-08-07T08:00:00Z,27.0660,-96.3383,-2.0,30.54,11111222 
TABS,ioos:station:TABS:X:1,2016-08-07T08:30:00Z,27.0660,-96.3383,-2.0,30.54,11111222 
TABS,ioos:station:TABS:X:1,2016-08-07T09:00:00Z,27.0660,-96.3383,-2.0,30.55,11111222 
TABS,ioos:station:TABS:X:1,2016-08-07T09:30:00Z,27.0660,-96.3383,-2.0,30.55,11111222 
TABS,ioos:station:TABS:X:1,2016-08-07T10:00:00Z,27.0660,-96.3383,-2.0,30.56,11111222 
TABS,ioos:station:TABS:X:1,2016-08-07T10:30:00Z,27.0660,-96.3383,-2.0,30.55,11111222 
TABS,ioos:station:TABS:X:1,2016-08-07T11:00:00Z,27.0660,-96.3383,-2.0,30.53,11111222 
TABS,ioos:station:TABS:X:1,2016-08-07T11:30:00Z,27.0660,-96.3383,-2.0,30.52,11111222 
TABS,ioos:station:TABS:X:1,2016-08-07T12:00:00Z,27.0660,-96.3383,-2.0,30.49,11111222 
TABS,ioos:station:TABS:X:1,2016-08-07T12:30:00Z,27.0660,-96.3383,-2.0,30.48,11111222 
TABS,ioos:station:TABS:X:1,2016-08-07T13:00:00Z,27.0660,-96.3383,-2.0,30.46,11111222 
TABS,ioos:station:TABS:X:1,2016-08-07T13:30:00Z,27.0660,-96.3383,-2.0,30.46,11111222 
TABS,ioos:station:TABS:X:1,2016-08-07T14:00:00Z,27.0660,-96.3383,-2.0,30.46,11111222 
TABS,ioos:station:TABS:X:1,2016-08-07T14:30:00Z,27.0660,-96.3383,-2.0,30.46,11111222 
TABS,ioos:station:TABS:X:1,2016-08-07T15:00:00Z,27.0660,-96.3383,-2.0,30.48,11111222 
TABS,ioos:station:TABS:X:1,2016-08-07T15:30:00Z,27.0660,-96.3383,-2.0,30.5,11111222 
TABS,ioos:station:TABS:X:1,2016-08-07T16:00:00Z,27.0660,-96.3383,-2.0,30.53,11111222 
TABS,ioos:station:TABS:X:1,2016-08-07T16:30:00Z,27.0660,-96.3383,-2.0,30.59,11111222 
TABS,ioos:station:TABS:X:1,2016-08-07T17:00:00Z,27.0660,-96.3383,-2.0,30.66,11111222 
TABS,ioos:station:TABS:X:1,2016-08-07T17:30:00Z,27.0660,-96.3383,-2.0,30.73,11111222 
TABS,ioos:station:TABS:X:1,2016-08-07T18:00:00Z,27.0660,-96.3383,-2.0,30.8,11111222 
TABS,ioos:station:TABS:X:1,2016-08-07T18:30:00Z,27.0660,-96.3383,-2.0,30.89,11111222 
TABS,ioos:station:TABS:X:1,2016-08-07T19:00:00Z,27.0660,-96.3383,-2.0,30.97,11111222 
TABS,ioos:station:TABS:X:1,2016-08-07T19:30:00Z,27.0660,-96.3383,-2.0,31.0,11111222 
TABS,ioos:station:TABS:X:1,2016-08-07T20:00:00Z,27.0660,-96.3383,-2.0,31.05,11111222 
TABS,ioos:station:TABS:X:1,2016-08-07T20:30:00Z,27.0660,-96.3383,-2.0,31.08,11111222 
TABS,ioos:station:TABS:X:1,2016-08-07T21:00:00Z,27.0660,-96.3383,-2.0,31.09,11111222 
TABS,ioos:station:TABS:X:1,2016-08-07T21:30:00Z,27.0660,-96.3383,-2.0,31.09,11111222 
TABS,ioos:station:TABS:X:1,2016-08-07T22:00:00Z,27.0660,-96.3383,-2.0,31.08,11111222 
TABS,ioos:station:TABS:X:1,2016-08-07T22:30:00Z,27.0660,-96.3383,-2.0,31.06,11111222 
TABS,ioos:station:TABS:X:1,2016-08-07T23:00:00Z,27.0660,-96.3383,-2.0,31.06,11111222 
TABS,ioos:station:TABS:X:1,2016-08-07T23:30:00Z,27.0660,-96.3383,-2.0,31.03,11111222 
TABS,ioos:station:TABS:X:1,2016-08-08T00:00:00Z,27.0660,-96.3383,-2.0,30.99,11111222 
TABS,ioos:station:TABS:X:1,2016-08-08T00:30:00Z,27.0660,-96.3383,-2.0,30.95,11111222 
TABS,ioos:station:TABS:X:1,2016-08-08T01:00:00Z,27.0660,-96.3383,-2.0,30.9,11111222 
TABS,ioos:station:TABS:X:1,2016-08-08T01:30:00Z,27.0660,-96.3383,-2.0,30.86,11111222 
TABS,ioos:station:TABS:X:1,2016-08-08T02:00:00Z,27.0660,-96.3383,-2.0,30.8,11111222 
TABS,ioos:station:TABS:X:1,2016-08-08T02:30:00Z,27.0660,-96.3383,-2.0,30.72,11111222 
TABS,ioos:station:TABS:X:1,2016-08-08T03:00:00Z,27.0660,-96.3383,-2.0,30.66,11111222 
TABS,ioos:station:TABS:X:1,2016-08-08T03:30:00Z,27.0660,-96.3383,-2.0,30.58,11111222 
TABS,ioos:station:TABS:X:1,2016-08-08T04:00:00Z,27.0660,-96.3383,-2.0,30.55,11111222 
TABS,ioos:station:TABS:X:1,2016-08-08T04:30:00Z,27.0660,-96.3383,-2.0,30.52,11111222 
TABS,ioos:station:TABS:X:1,2016-08-08T05:00:00Z,27.0660,-96.3383,-2.0,30.49,11111222 
TABS,ioos:station:TABS:X:1,2016-08-08T05:30:00Z,27.0660,-96.3383,-2.0,30.47,11111222 
TABS,ioos:station:TABS:X:1,2016-08-08T06:00:00Z,27.0660,-96.3383,-2.0,30.46,11111222 
TABS,ioos:station:TABS:X:1,2016-08-08T06:30:00Z,27.0660,-96.3383,-2.0,30.48,11111222 
TABS,ioos:station:TABS:X:1,2016-08-08T07:00:00Z,27.0660,-96.3383,-2.0,30.53,11111222 
TABS,ioos:station:TABS:X:1,2016-08-08T07:30:00Z,27.0660,-96.3383,-2.0,30.52,11111222 
TABS,ioos:station:TABS:X:1,2016-08-08T08:00:00Z,27.0660,-96.3383,-2.0,30.47,11111222 
TABS,ioos:station:TABS:X:1,2016-08-08T08:30:00Z,27.0660,-96.3383,-2.0,30.46,11111222 
TABS,ioos:station:TABS:X:1,2016-08-08T09:00:00Z,27.0660,-96.3383,-2.0,30.4,11111222 
TABS,ioos:station:TABS:X:1,2016-08-08T09:30:00Z,27.0660,-96.3383,-2.0,30.48,11111222 
TABS,ioos:station:TABS:X:1,2016-08-08T10:00:00Z,27.0660,-96.3383,-2.0,30.46,11111222 
TABS,ioos:station:TABS:X:1,2016-08-08T10:30:00Z,27.0660,-96.3383,-2.0,30.42,11111222 
TABS,ioos:station:TABS:X:1,2016-08-08T11:00:00Z,27.0660,-96.3383,-2.0,30.37,11111222 
TABS,ioos:station:TABS:X:1,2016-08-08T11:30:00Z,27.0660,-96.3383,-2.0,30.37,11111222 
TABS,ioos:station:TABS:X:1,2016-08-08T12:00:00Z,27.0660,-96.3383,-2.0,30.37,11111222 
TABS,ioos:station:TABS:X:1,2016-08-08T12:30:00Z,27.0660,-96.3383,-2.0,30.34,11111222 
TABS,ioos:station:TABS:X:1,2016-08-08T13:00:00Z,27.0660,-96.3383,-2.0,30.34,11111222 
TABS,ioos:station:TABS:X:1,2016-08-08T13:30:00Z,27.0660,-96.3383,-2.0,30.34,11111222 
TABS,ioos:station:TABS:X:1,2016-08-08T14:00:00Z,27.0660,-96.3383,-2.0,30.34,11111222 
TABS,ioos:station:TABS:X:1,2016-08-08T14:30:00Z,27.0660,-96.3383,-2.0,30.32,11111222 
TABS,ioos:station:TABS:X:1,2016-08-08T15:00:00Z,27.0660,-96.3383,-2.0,30.34,11111222 
TABS,ioos:station:TABS:X:1,2016-08-08T15:30:00Z,27.0660,-96.3383,-2.0,30.37,11111222 
TABS,ioos:station:TABS:X:1,2016-08-08T16:00:00Z,27.0660,-96.3383,-2.0,30.43,11111222 
TABS,ioos:station:TABS:X:1,2016-08-08T16:30:00Z,27.0660,-96.3383,-2.0,30.48,11111222 
TABS,ioos:station:TABS:X:1,2016-08-08T17:00:00Z,27.0660,-96.3383,-2.0,30.52,11111222 
TABS,ioos:station:TABS:X:1,2016-08-08T17:30:00Z,27.0660,-96.3383,-2.0,30.55,11111222 
TABS,ioos:station:TABS:X:1,2016-08-08T18:00:00Z,27.0660,-96.3383,-2.0,30.61,11111222 
TABS,ioos:station:TABS:X:1,2016-08-08T18:30:00Z,27.0660,-96.3383,-2.0,30.68,11111222 
TABS,ioos:station:TABS:X:1,2016-08-08T19:00:00Z,27.0660,-96.3383,-2.0,30.77,11111222 
TABS,ioos:station:TABS:X:1,2016-08-08T19:30:00Z,27.0660,-96.3383,-2.0,30.84,11111222 
TABS,ioos:station:TABS:X:1,2016-08-08T20:00:00Z,27.0660,-96.3383,-2.0,30.93,11111222 
TABS,ioos:station:TABS:X:1,2016-08-08T20:30:00Z,27.0660,-96.3383,-2.0,31.01,11111222 
TABS,ioos:station:TABS:X:1,2016-08-08T21:00:00Z,27.0660,-96.3383,-2.0,31.11,11111222 
TABS,ioos:station:TABS:X:1,2016-08-08T21:30:00Z,27.0660,-96.3383,-2.0,31.15,11111222 